Location: Pontbriand
(46.1542°N, 71.2542°W)
Time: 15:55:18
(UTC+00:00)

Envisat - Pass Details

Date: 04 December 2021
Orbit: 764 x 766 km, 98.2° (Epoch: 16 January)

Event Time Altitude Azimuth Distance (km) Brightness Sun altitude
Rises 21:49:08 0° 198° (SSW) 3,220 6.9 -8.4°
Reaches altitude 10° 21:51:48 10° 211° (SSW) 2,299 6.4 -8.8°
Maximum altitude 21:55:57 25° 267° (W) 1,499 5.5 -9.5°
Drops below altitude 10° 22:00:09 10° 322° (NW) 2,313 5.7 -10.1°
Sets 22:02:52 0° 336° (NNW) 3,244 6.3 -10.6°
